FW1042 Weather Reports


Display with metric or nautical units.
time (UTC)temp
F
wind
direction
speed
MPH
gust
MPH
rain 1hr
in
rain 24hr
in
rain mn
in
humidity
%
barometer
mb
20260831203428 101 117 4.0 10.0 0.00 0.00 0.00 33 1014.8
20260831202927 102 159 4.0 10.0 0.00 0.00 0.00 31 1014.9
20260831202427 102 135 4.0 10.0 0.00 0.00 0.00 32 1014.8
20260831201928 101 182 3.0 9.0 0.00 0.00 0.00 31 1014.8
20260831201431 101 178 3.0 9.0 0.00 0.00 0.00 31 1014.8
20260831200928 102 123 3.0 9.0 0.00 0.00 0.00 31 1014.9
20260831200428 101 146 4.0 9.0 0.00 0.00 0.00 33 1015.0
20260831195926 102 178 4.0 9.0 0.00 0.00 0.00 32 1015.0
20260831195425 101 173 3.0 12.0 0.00 0.00 0.00 33 1015.1
20260831194918 101 167 3.0 12.0 0.00 0.00 0.00 32 1015.2
20260831194411 100 167 3.0 10.0 0.00 0.00 0.00 34 1015.3
20260831193908 99 210 3.0 8.0 0.00 0.00 0.00 35 1015.4
20260831193407 98 150 3.0 8.0 0.00 0.00 0.00 34 1015.5
20260831192907 99 142 3.0 8.0 0.00 0.00 0.00 34 1015.6
20260831192409 99 167 3.0 8.0 0.00 0.00 0.00 36 1015.6
20260831191905 97 94 3.0 8.0 0.00 0.00 0.00 36 1015.6
20260831191403 98 144 3.0 8.0 0.00 0.00 0.00 35 1015.6
20260831191201 98 89 3.0 8.0 0.00 0.00 0.00 35 1015.6
20260831190405 98 132 4.0 9.0 0.00 0.00 0.00 35 1015.8
20260831190218 98 100 3.0 9.0 0.00 0.00 0.00 38 1015.7
20260831185404 98 211 3.0 11.0 0.00 0.00 0.00 35 1015.7
20260831184902 99 107 4.0 11.0 0.00 0.00 0.00 33 1015.8
20260831184402 99 160 4.0 10.0 0.00 0.00 0.00 34 1015.9
20260831183902 98 188 4.0 10.0 0.00 0.00 0.00 37 1015.9
20260831183733 99 219 3.0 11.0 0.00 0.00 0.00 38 1016.2
20260831183728 98 146 4.0 11.0 0.00 0.00 0.00 37 1016.0
20260831182356 98 134 3.0 7.0 0.00 0.00 0.00 38 1016.3
20260831181855 98 135 2.0 9.0 0.00 0.00 0.00 38 1016.4
20260831181356 98 173 3.0 9.0 0.00 0.00 0.00 39 1016.6
20260831180856 99 156 3.0 8.0 0.00 0.00 0.00 39 1016.6
20260831180356 99 183 2.0 8.0 0.00 0.00 0.00 40 1016.7
20260831175856 98 109 2.0 8.0 0.00 0.00 0.00 41 1016.7
20260831175649 98 138 3.0 10.0 0.00 0.00 0.00 40 1016.9
20260831174855 98 181 3.0 10.0 0.00 0.00 0.00 39 1017.0
20260831174355 98 119 4.0 10.0 0.00 0.00 0.00 43 1017.1
20260831174148 97 170 4.0 8.0 0.00 0.00 0.00 41 1017.3
20260831173354 98 205 3.0 10.0 0.00 0.00 0.00 40 1017.2
20260831172853 98 178 3.0 10.0 0.00 0.00 0.00 40 1017.3
20260831172351 97 157 3.0 9.0 0.00 0.00 0.00 42 1017.4
20260831171852 97 146 3.0 8.0 0.00 0.00 0.00 41 1017.3
20260831171445 96 150 3.0 11.0 0.00 0.00 0.00 41 1017.5
20260831171425 96 156 3.0 8.0 0.00 0.00 0.00 42 1017.5
20260831170351 96 188 3.0 11.0 0.00 0.00 0.00 42 1017.6
20260831165851 96 122 4.0 11.0 0.00 0.00 0.00 43 1017.5
20260831165349 96 277 4.0 9.0 0.00 0.00 0.00 42 1017.4
20260831164847 96 176 3.0 12.0 0.00 0.00 0.00 41 1017.4
20260831164348 96 205 3.0 12.0 0.00 0.00 0.00 41 1017.5
20260831163848 96 338 4.0 10.0 0.00 0.00 0.00 41 1017.3
20260831163347 96 153 4.0 10.0 0.00 0.00 0.00 42 1017.4
20260831162847 96 269 3.0 8.0 0.00 0.00 0.00 42 1017.5
20260831162350 96 186 4.0 9.0 0.00 0.00 0.00 44 1017.6
20260831161844 95 153 3.0 9.0 0.00 0.00 0.00 44 1017.5
20260831161443 94 159 2.0 8.0 0.00 0.00 0.00 46 1017.5
20260831161421 95 134 2.0 8.0 0.00 0.00 0.00 45 1017.5
20260831160638 94 185 3.0 8.0 0.00 0.00 0.00 45 1017.6
20260831155843 94 196 3.0 8.0 0.00 0.00 0.00 45 1017.7
20260831155342 94 194 3.0 10.0 0.00 0.00 0.00 45 1017.6
20260831154846 94 178 3.0 10.0 0.00 0.00 0.00 46 1017.6
20260831154339 93 144 3.0 8.0 0.00 0.00 0.00 47 1017.6
20260831154137 93 284 3.0 9.0 0.00 0.00 0.00 47 1017.5
20260831153339 93 205 3.0 9.0 0.00 0.00 0.00 47 1017.3
20260831152838 92 183 3.0 9.0 0.00 0.00 0.00 47 1017.4
20260831152339 92 242 3.0 9.0 0.00 0.00 0.00 48 1017.4
20260831151837 92 208 3.0 9.0 0.00 0.00 0.00 48 1017.3
20260831151337 92 144 4.0 9.0 0.00 0.00 0.00 49 1017.4
20260831150833 91 189 4.0 9.0 0.00 0.00 0.00 50 1017.4
20260831150327 91 166 3.0 8.0 0.00 0.00 0.00 50 1017.3
20260831145828 91 152 3.0 7.0 0.00 0.00 0.00 51 1017.2
20260831145327 90 173 3.0 8.0 0.00 0.00 0.00 52 1017.3
20260831145125 90 255 3.0 8.0 0.00 0.00 0.00 52 1017.2
20260831144327 90 187 3.0 7.0 0.00 0.00 0.00 53 1017.1
20260831143826 89 126 3.0 7.0 0.00 0.00 0.00 55 1017.3
20260831143324 89 190 3.0 8.0 0.00 0.00 0.00 56 1017.2
20260831142824 88 200 3.0 9.0 0.00 0.00 0.00 55 1017.3
20260831142321 88 178 3.0 9.0 0.00 0.00 0.00 57 1017.3
20260831142119 88 190 3.0 7.0 0.00 0.00 0.00 58 1017.3
20260831141319 87 187 3.0 6.0 0.00 0.00 0.00 60 1017.3
20260831140819 87 111 3.0 8.0 0.00 0.00 0.00 61 1017.3
20260831140318 87 146 2.0 8.0 0.00 0.00 0.00 62 1017.3
20260831135817 86 195 3.0 8.0 0.00 0.00 0.00 63 1017.2
20260831135313 86 146 4.0 9.0 0.00 0.00 0.00 64 1017.2
20260831134815 85 155 4.0 10.0 0.00 0.00 0.00 64 1017.3
20260831134313 85 213 3.0 10.0 0.00 0.00 0.00 64 1017.2
20260831133814 84 187 3.0 10.0 0.00 0.00 0.00 65 1017.2
20260831133311 83 196 3.0 8.0 0.00 0.00 0.00 66 1016.9
20260831132811 83 225 3.0 8.0 0.00 0.00 0.00 67 1016.8
20260831132310 83 148 3.0 8.0 0.00 0.00 0.00 67 1016.8
20260831132058 82 198 2.0 8.0 0.00 0.00 0.00 68 1016.7
20260831131310 82 195 2.0 6.0 0.00 0.00 0.00 68 1016.5
20260831130810 82 139 2.0 7.0 0.00 0.00 0.00 69 1016.6
20260831130309 81 142 2.0 7.0 0.00 0.00 0.00 69 1016.6
20260831125809 81 184 1.0 4.0 0.00 0.00 0.00 69 1016.5
20260831125310 81 214 1.0 4.0 0.00 0.00 0.00 70 1016.5
20260831124803 81 156 1.0 4.0 0.00 0.00 0.00 70 1016.4
20260831124303 81 155 2.0 5.0 0.00 0.00 0.00 70 1016.3
20260831123803 81 167 2.0 5.0 0.00 0.00 0.00 70 1016.0
20260831123303 81 160 2.0 5.0 0.00 0.00 0.00 70 1015.9
20260831122804 81 169 1.0 4.0 0.00 0.00 0.00 70 1015.8
20260831122305 81 177 1.0 4.0 0.00 0.00 0.00 70 1015.7
20260831122059 81 205 1.0 4.0 0.00 0.00 0.00 69 1015.7
20260831121303 81 164 1.0 4.0 0.00 0.00 0.00 69 1015.5
20260831120804 81 159 2.0 4.0 0.00 0.00 0.00 69 1015.5
20260831120304 81 211 2.0 7.0 0.00 0.00 0.00 69 1015.6
20260831115804 81 155 2.0 7.0 0.00 0.00 0.00 69 1015.4
20260831115600 81 136 2.0 6.0 0.00 0.00 0.00 69 1015.3
20260831114801 81 150 1.0 4.0 0.00 0.00 0.00 69 1015.4
20260831114301 81 173 1.0 4.0 0.00 0.00 0.00 69 1015.3
20260831113801 81 186 1.0 3.0 0.00 0.00 0.00 69 1015.3
20260831113301 81 151 1.0 4.0 0.00 0.00 0.00 69 1015.2
20260831112802 82 150 1.0 5.0 0.00 0.00 0.00 69 1015.1
20260831112555 82 176 1.0 5.0 0.00 0.00 0.00 69 1015.0
20260831112059 82 153 1.0 5.0 0.00 0.00 0.00 69 1015.1
20260831111337 82 163 1.0 4.0 0.00 0.00 0.00 68 1015.1
20260831110301 82 136 1.0 4.0 0.00 0.00 0.00 68 1015.0
20260831105802 82 163 2.0 4.0 0.00 0.00 0.00 68 1014.9
20260831105306 82 178 1.0 6.0 0.00 0.00 0.00 67 1014.8
20260831104802 82 178 2.0 6.0 0.00 0.00 0.00 67 1014.9
20260831104303 82 182 2.0 6.0 0.00 0.00 0.00 67 1014.9
20260831103802 82 140 1.0 5.0 0.00 0.00 0.00 67 1014.9
20260831103302 82 192 1.0 3.0 0.00 0.00 0.00 66 1014.9
20260831102801 82 194 2.0 5.0 0.00 0.00 0.00 66 1014.7
20260831102301 82 190 2.0 5.0 0.00 0.00 0.00 65 1014.9
20260831101802 82 170 2.0 5.0 0.00 0.00 0.00 65 1014.8
20260831101302 83 182 2.0 5.0 0.00 0.00 0.00 64 1014.8
20260831101054 83 168 1.0 4.0 0.00 0.00 0.00 64 1014.8
20260831100303 83 187 1.0 4.0 0.00 0.00 0.00 63 1014.8
20260831100107 83 164 1.0 4.0 0.00 0.00 0.00 63 1014.8
20260831095301 83 135 2.0 6.0 0.00 0.00 0.00 63 1014.9
20260831094801 83 194 2.0 7.0 0.00 0.00 0.00 63 1014.9
20260831094301 83 162 2.0 7.0 0.00 0.00 0.00 63 1014.9
20260831093801 83 156 2.0 4.0 0.00 0.00 0.00 62 1014.8
20260831093301 83 137 2.0 4.0 0.00 0.00 0.00 62 1014.9
20260831092801 84 184 2.0 7.0 0.00 0.00 0.00 62 1014.9
20260831092257 84 186 2.0 7.0 0.00 0.00 0.00 61 1014.8
20260831091755 84 163 1.0 4.0 0.00 0.00 0.00 61 1014.6
20260831091253 84 155 2.0 4.0 0.00 0.00 0.00 61 1014.7
20260831090753 84 191 2.0 5.0 0.00 0.00 0.00 60 1014.6
20260831090253 84 155 2.0 5.0 0.00 0.00 0.00 60 1014.7
20260831085753 85 194 2.0 6.0 0.00 0.00 0.00 59 1014.7
20260831085257 85 184 3.0 7.0 0.00 0.00 0.00 59 1014.7
20260831084753 85 192 2.0 7.0 0.00 0.00 0.00 58 1014.6
20260831084251 85 156 3.0 7.0 0.00 0.00 0.00 58 1014.5
20260831084045 85 146 3.0 7.0 0.00 0.00 0.00 57 1014.6
20260831083250 85 174 2.0 7.0 0.00 0.00 0.00 57 1014.5
20260831082751 85 174 3.0 7.0 0.00 0.00 0.00 56 1014.5
20260831082251 85 162 3.0 7.0 0.00 0.00 0.00 56 1014.5
20260831081754 85 196 3.0 8.0 0.00 0.00 0.00 55 1014.6
20260831081249 86 213 3.0 8.0 0.00 0.00 0.00 54 1014.6
20260831080749 86 161 3.0 8.0 0.00 0.00 0.00 54 1014.6
20260831080250 86 187 3.0 10.0 0.00 0.00 0.00 53 1014.6
20260831075838 86 195 3.0 9.0 0.00 0.00 0.00 53 1014.4
20260831075816 86 140 4.0 10.0 0.00 0.00 0.00 53 1014.5
20260831075047 86 192 3.0 9.0 0.00 0.00 0.00 53 1014.4
20260831074245 86 136 3.0 9.0 0.00 0.00 0.00 53 1014.3
20260831073745 85 161 3.0 9.0 0.00 0.00 0.00 53 1014.4
20260831073244 85 144 2.0 7.0 0.00 0.00 0.00 53 1014.3
20260831072743 85 210 2.0 7.0 0.00 0.00 0.00 54 1014.3
20260831072243 85 189 1.0 5.0 0.00 0.00 0.00 54 1014.2
20260831071744 85 149 0.0 2.0 0.00 0.00 0.00 54 1014.2
20260831071242 85 169 0.0 2.0 0.00 0.00 0.00 53 1014.2
20260831070743 85 188 0.0 2.0 0.00 0.00 0.00 53 1014.3
20260831070532 86 203 1.0 3.0 0.00 0.00 0.00 53 1014.2
20260831065743 86 193 1.0 3.0 0.00 0.00 0.00 53 1014.3
20260831065243 86 175 0.0 2.0 0.00 0.00 0.00 53 1014.3
20260831064743 86 167 0.0 2.0 0.00 0.00 0.00 52 1014.3
20260831064243 87 178 0.0 4.0 0.00 0.00 0.00 52 1014.3
20260831064034 87 157 0.0 2.0 0.00 0.00 0.00 51 1014.3
20260831063236 87 179 1.0 3.0 0.00 0.00 0.00 51 1014.3
20260831062737 87 164 1.0 3.0 0.00 0.00 0.00 51 1014.4
20260831062237 87 191 1.0 3.0 0.00 0.00 0.00 50 1014.3
20260831061737 87 178 1.0 6.0 0.00 0.00 0.00 50 1014.4
20260831061237 87 181 1.0 6.0 0.00 0.00 0.00 50 1014.3
20260831060737 87 186 1.0 4.0 0.00 0.00 0.00 50 1014.3
20260831060237 88 193 1.0 7.0 0.00 0.00 0.00 50 1014.3
20260831060033 88 167 2.0 7.0 0.00 0.00 0.00 50 1014.4
20260831055229 88 155 1.0 5.0 0.00 0.00 0.00 50 1014.3
20260831055021 88 159 2.0 5.0 0.00 0.00 0.00 50 1014.4
20260831054229 88 153 2.0 5.0 0.00 0.00 0.00 50 1014.5
20260831053728 87 212 2.0 7.0 0.00 0.00 0.00 51 1014.5
20260831053229 87 183 1.0 7.0 0.00 0.00 0.00 51 1014.4
20260831052727 87 200 1.0 5.0 0.00 0.00 0.00 51 1014.0
20260831052228 88 0.0 0.0 0.00 0.00 0.00 50
20260831051153 88 155 2.0 5.0 0.00 0.00 0.00 50 1014.0
20260831051123 88 146 2.0 5.0 0.00 0.00 0.00 50 1013.9
20260831051118 88 140 1.0 5.0 0.00 0.00 0.00 49 1013.8
20260831051012 88 161 2.0 5.0 0.00 0.00 0.00 50 1013.8
20260831050909 88 157 1.0 5.0 0.00 0.00 0.00 50 1013.8
20260831050431 88 180 2.0 5.0 0.00 0.00 0.00 50 1013.8
20260831044650 88 140 1.0 5.0 0.00 0.00 0.00 49 1013.8
20260831044152 88 184 1.0 5.0 0.00 0.00 0.00 49 1013.8
20260831043650 88 146 1.0 3.0 0.00 0.00 0.00 49 1013.9
20260831043501 88 150 1.0 4.0 0.00 0.00 0.00 49 1013.9
20260831042650 88 146 1.0 4.0 0.00 0.00 0.00 49 1013.9
20260831042439 88 185 1.0 4.0 0.00 0.00 0.00 49 1014.1
20260831041648 88 138 1.0 2.0 0.00 0.00 0.00 48 1013.9
20260831041436 88 175 1.0 2.0 0.00 0.00 0.00 48 1014.1
20260831040621 89 189 0.0 3.0 0.00 0.00 0.00 47 1014.0
20260831040411 89 153 1.0 3.0 0.00 0.00 0.00 47 1014.0
20260831035618 89 149 1.0 3.0 0.00 0.00 0.00 47 1013.9
20260831035118 89 142 1.0 3.0 0.00 0.00 0.00 47 1013.9
20260831034618 89 175 1.0 3.0 0.00 0.00 0.00 46 1013.9
20260831034115 89 192 0.0 3.0 0.00 0.00 0.00 46 1013.8
20260831033606 89 159 0.0 1.0 0.00 0.00 0.00 45 1013.8
20260831033105 90 171 0.0 3.0 0.00 0.00 0.00 45 1013.7
20260831032708 90 157 1.0 4.0 0.00 0.00 0.00 45 1013.7
20260831032640 90 188 1.0 4.0 0.00 0.00 0.00 45 1013.7
20260831031606 90 148 0.0 2.0 0.00 0.00 0.00 44 1013.8
20260831031102 91 155 0.0 1.0 0.00 0.00 0.00 44 1013.7
20260831030602 91 161 0.0 2.0 0.00 0.00 0.00 44 1013.7
20260831030400 91 161 0.0 2.0 0.00 0.00 0.00 44 1013.5
20260831025602 91 153 1.0 4.0 0.00 0.00 0.00 44 1013.7
20260831025102 91 165 1.0 4.0 0.00 0.00 0.00 44 1013.6
20260831024602 91 167 0.0 3.0 0.00 0.00 0.00 44 1013.5
20260831024355 92 156 0.0 2.0 0.00 0.00 0.00 43 1013.4
20260831023602 92 169 0.0 2.0 0.00 0.00 0.00 43 1013.5
20260831023103 92 141 1.0 4.0 0.00 0.00 0.00 43 1013.3
20260831022600 92 181 1.0 4.0 0.00 0.00 0.00 43 1013.3
20260831022100 92 146 1.0 4.0 0.00 0.00 0.00 43 1013.2
20260831021600 92 171 1.0 4.0 0.00 0.00 0.00 43 1013.0
20260831021101 92 182 2.0 4.0 0.00 0.00 0.00 43 1013.1
20260831020602 92 138 1.0 4.0 0.00 0.00 0.00 43 1012.9
20260831020347 93 150 2.0 5.0 0.00 0.00 0.00 43 1012.9
20260831015558 93 139 2.0 5.0 0.00 0.00 0.00 42 1012.7
20260831015058 93 114 1.0 5.0 0.00 0.00 0.00 42 1012.8
20260831014558 93 180 2.0 5.0 0.00 0.00 0.00 42 1012.7
20260831014059 93 138 2.0 7.0 0.00 0.00 0.00 42 1012.7
20260831013605 93 161 1.0 7.0 0.00 0.00 0.00 42 1012.7
20260831013100 94 166 1.0 5.0 0.00 0.00 0.00 42 1012.7
20260831012558 94 147 2.0 5.0 0.00 0.00 0.00 41 1012.6
20260831012058 94 146 2.0 5.0 0.00 0.00 0.00 40 1012.5
20260831011556 94 132 2.0 5.0 0.00 0.00 0.00 40 1012.6
20260831011349 94 119 1.0 4.0 0.00 0.00 0.00 39 1012.5
20260831010552 95 136 2.0 4.0 0.00 0.00 0.00 39 1012.5
20260831010347 95 167 2.0 6.0 0.00 0.00 0.00 38 1012.5
20260831005552 95 152 2.0 6.0 0.00 0.00 0.00 37 1012.5
20260831005050 96 173 2.0 6.0 0.00 0.00 0.00 37 1012.5
20260831004848 96 116 2.0 6.0 0.00 0.00 0.00 36 1012.4
20260831004049 96 108 2.0 7.0 0.00 0.00 0.00 36 1012.5
20260831003549 96 150 2.0 7.0 0.00 0.00 0.00 36 1012.4
20260831003050 97 94 3.0 7.0 0.00 0.00 0.00 35 1012.5
20260831002548 97 159 2.0 7.0 0.00 0.00 0.00 35 1012.5
20260831002049 97 188 2.0 9.0 0.00 0.00 0.00 35 1012.5
20260831001548 98 152 3.0 9.0 0.00 0.00 0.00 34 1012.6
20260831001048 98 198 2.0 6.0 0.00 0.00 0.00 33 1012.4
20260831000548 99 157 2.0 8.0 0.00 0.00 0.00 33 1012.4
20260831000044 100 148 2.0 8.0 0.00 0.00 0.00 33 1012.3
20260830235839 100 103 2.0 7.0 0.00 0.00 0.00 32 1012.3
20260830235044 100 112 3.0 8.0 0.00 0.00 0.00 32 1012.5
20260830234544 100 157 3.0 8.0 0.00 0.00 0.00 31 1012.5
20260830234041 101 165 2.0 7.0 0.00 0.00 0.00 30 1012.6
20260830233542 101 219 2.0 6.0 0.00 0.00 0.00 30 1012.6
20260830233042 100 201 3.0 6.0 0.00 0.00 0.00 31 1012.5
20260830232542 100 157 3.0 10.0 0.00 0.00 0.00 31 1012.6
20260830232044 100 215 4.0 10.0 0.00 0.00 0.00 31 1012.7
20260830231543 101 0.0 0.0 0.00 0.00 0.00 31
20260830215926 101 172 3.0 8.0 0.00 0.00 0.00 33 1012.8
20260830215422 101 113 3.0 2.0 0.00 0.00 0.00 33 1012.8
20260830214707 102 0.0 0.0 0.00 0.00 0.00 31
20260830213845 103 0.0 0.0 0.00 0.00 0.00 33
20260830205244 102 0.0 0.0 0.00 0.00 0.00 33